Weather History for Coleman, TX

Change the Weather History Date:

Monday, October 21, 2013

  Actual Average (KABI) Record (KABI)
Temperature  
Mean Temperature 58 °F 64 °F  
Max Temperature 67 °F 76 °F 93 °F (1979)
Min Temperature 50 °F 53 °F 34 °F (1917)
Degree Days  
Heating Degree Days 6 3  
Month to date heating degree days 45  
Since 1 July heating degree days 56  
Cooling Degree Days 0 3  
Month to date cooling degree days 95  
Year to date cooling degree days 2366  
Growing Degree Days 8 (Base 50)    
Moisture  
Dew Point 50 °F    
Average Humidity 74    
Maximum Humidity 87    
Minimum Humidity 53    
Precipitation  
Precipitation 0.00 in 0.10 in 1.93 in (1972)
Month to date precipitation 2.08  
Year to date precipitation 21.28  
Sea Level Pressure  
Sea Level Pressure 30.01 in    
Wind  
Wind Speed 6 mph (North)    
Max Wind Speed 17 mph    
Max Gust Speed 22 mph    
Visibility 10 miles    
Events      
T = Trace of Precipitation, MM = Missing Value Source: NWS Daily Summary

Daily Weather History Graph

Daily Weather History Graph

Search for Another Location

Airport:

Trip Planner

Search our weather history database for the weather conditions in past years. The results will help you decide how hot, cold, wet, or windy it might be!

Date:

Astronomy

Oct. 21, 2013 Rise Set
Actual Time 7:45 AM CDT 6:58 PM CDT
Civil Twilight 7:20 AM CDT 7:23 PM CDT
Nautical Twilight 6:52 AM CDT 7:51 PM CDT
Astronomical Twilight 6:23 AM CDT 8:19 PM CDT
Moon 9:01 PM CDT (10/21) 10:13 AM CDT (10/21)
Length of Visible Light 12h 02m
Length of Day
11h 12m
Waning Gibbous, 92% of the Moon is Illuminated
Oct 21
Waning Gibbous
Oct 26
Last Quarter
Nov 3
New
Nov 9
First Quarter
Nov 17
Full

Hourly Weather History & Observations

Time (CDT) Temp. Dew Point Humidity Pressure Visibility Wind Dir Wind Speed Gust Speed Precip Events Conditions
12:15 AM 59.9 °F 51.8 °F 75% 29.92 in 10.0 mi SSW 9.2 mph - N/A   Clear
12:35 AM 59.0 °F 51.8 °F 77% 29.92 in 10.0 mi SSW 6.9 mph - N/A   Clear
12:55 AM 58.3 °F 51.8 °F 79% 29.92 in 10.0 mi SSW 5.8 mph - N/A   Clear
1:15 AM 57.6 °F 51.8 °F 81% 29.92 in 10.0 mi SW 3.5 mph - N/A   Clear
1:35 AM 57.4 °F 51.6 °F 81% 29.92 in 10.0 mi SSW 5.8 mph - N/A   Clear
1:55 AM 57.2 °F 51.3 °F 81% 29.92 in 10.0 mi SSW 4.6 mph - N/A   Clear
2:15 AM 56.5 °F 50.9 °F 82% 29.92 in 10.0 mi South 3.5 mph - N/A   Clear
2:35 AM 55.2 °F 50.5 °F 84% 29.92 in 10.0 mi South 4.6 mph - N/A   Clear
2:55 AM 55.0 °F 50.0 °F 83% 29.92 in 10.0 mi South 4.6 mph - N/A   Clear
3:15 AM 55.2 °F 49.8 °F 82% 29.91 in 10.0 mi SSW 3.5 mph - N/A   Clear
3:35 AM 55.6 °F 49.5 °F 80% 29.92 in 10.0 mi Calm Calm - N/A   Clear
3:55 AM 54.9 °F 49.5 °F 82% 29.92 in 10.0 mi SSW 3.5 mph - N/A   Clear
4:15 AM 54.0 °F 49.5 °F 85% 29.92 in 10.0 mi Calm Calm - N/A   Clear
4:35 AM 54.0 °F 49.1 °F 84% 29.92 in 10.0 mi SSW 4.6 mph - N/A   Clear
4:55 AM 54.0 °F 49.1 °F 84% 29.91 in 10.0 mi Calm Calm - N/A   Clear
5:15 AM 53.6 °F 48.7 °F 84% 29.91 in 10.0 mi Calm Calm - N/A   Clear
5:35 AM 54.5 °F 49.1 °F 82% 29.91 in 10.0 mi SW 3.5 mph - N/A   Clear
5:55 AM 53.1 °F 48.7 °F 85% 29.92 in 10.0 mi Calm Calm - N/A   Clear
6:15 AM 52.9 °F 48.6 °F 85% 29.91 in 10.0 mi Calm Calm - N/A   Clear
6:35 AM 52.5 °F 48.6 °F 86% 29.92 in 10.0 mi Calm Calm - N/A   Clear
6:55 AM 53.1 °F 49.3 °F 87% 29.96 in 10.0 mi NNW 10.4 mph - N/A   Scattered Clouds
7:15 AM 54.5 °F 50.0 °F 85% 29.96 in 10.0 mi Calm Calm - N/A   Overcast
7:35 AM 54.5 °F 50.5 °F 86% 29.97 in 10.0 mi Calm Calm - N/A   Overcast
7:55 AM 55.0 °F 50.9 °F 86% 29.98 in 10.0 mi Calm Calm - N/A   Overcast
8:15 AM 55.4 °F 51.1 °F 85% 29.97 in 10.0 mi Calm Calm - N/A   Overcast
8:35 AM 55.8 °F 51.3 °F 85% 29.98 in 10.0 mi Calm Calm - N/A   Overcast
8:55 AM 55.8 °F 52.0 °F 87% 29.98 in 10.0 mi Calm Calm - N/A   Overcast
9:15 AM 56.3 °F 52.0 °F 85% 29.99 in 10.0 mi Calm Calm - N/A   Overcast
9:35 AM 57.4 °F 52.0 °F 82% 30.00 in 10.0 mi Calm Calm - N/A   Overcast
9:55 AM 59.0 °F 53.1 °F 81% 30.01 in 10.0 mi Calm Calm - N/A   Overcast
10:15 AM 60.1 °F 53.4 °F 79% 30.01 in 10.0 mi Calm Calm - N/A   Overcast
10:35 AM 61.0 °F 54.1 °F 78% 30.02 in 10.0 mi North 6.9 mph - N/A   Overcast
10:55 AM 61.9 °F 54.9 °F 78% 30.02 in 10.0 mi North 8.1 mph - N/A   Overcast
11:15 AM 62.6 °F 54.9 °F 76% 30.03 in 10.0 mi North 8.1 mph - N/A   Overcast
11:35 AM 62.4 °F 53.4 °F 72% 30.04 in 10.0 mi NNW 11.5 mph - N/A   Overcast
11:55 AM 61.2 °F 50.5 °F 68% 30.05 in 10.0 mi NNW 8.1 mph - N/A   Overcast
12:15 PM 62.6 °F 50.5 °F 65% 30.05 in 10.0 mi North 10.4 mph - N/A   Overcast
12:35 PM 63.1 °F 50.5 °F 63% 30.05 in 10.0 mi North 12.7 mph - N/A   Overcast
12:55 PM 64.6 °F 50.7 °F 61% 30.04 in 10.0 mi NNW 10.4 mph - N/A   Overcast
1:15 PM 66.4 °F 51.3 °F 58% 30.03 in 10.0 mi North 13.8 mph - N/A   Mostly Cloudy
1:35 PM 67.1 °F 51.1 °F 56% 30.03 in 10.0 mi NNW 10.4 mph - N/A   Clear
1:55 PM 67.5 °F 51.4 °F 56% 30.03 in 10.0 mi North 11.5 mph - N/A   Scattered Clouds
2:15 PM 67.6 °F 51.3 °F 56% 30.03 in 10.0 mi North 13.8 mph - N/A   Scattered Clouds
2:35 PM 66.2 °F 50.7 °F 57% 30.02 in 10.0 mi North 13.8 mph - N/A   Mostly Cloudy
2:55 PM 66.2 °F 50.0 °F 56% 30.03 in 10.0 mi NNW 12.7 mph 16.1 mph N/A   Overcast
3:15 PM 65.5 °F 49.8 °F 57% 30.03 in 10.0 mi North 11.5 mph - N/A   Overcast
3:35 PM 65.7 °F 49.5 °F 56% 30.03 in 10.0 mi North 10.4 mph 17.3 mph N/A   Overcast
3:55 PM 66.2 °F 49.6 °F 55% 30.03 in 10.0 mi North 15.0 mph - N/A   Overcast
4:15 PM 67.1 °F 49.6 °F 53% 30.03 in 10.0 mi NNE 11.5 mph - N/A   Mostly Cloudy
4:35 PM 65.7 °F 49.3 °F 55% 30.04 in 10.0 mi North 11.5 mph - N/A   Overcast
4:55 PM 64.4 °F 49.3 °F 58% 30.04 in 10.0 mi NNE 17.3 mph - N/A   Overcast
5:15 PM 64.8 °F 49.1 °F 57% 30.05 in 10.0 mi North 17.3 mph - N/A   Mostly Cloudy
5:35 PM 63.9 °F 48.9 °F 58% 30.05 in 10.0 mi NNE 12.7 mph - N/A   Scattered Clouds
5:55 PM 63.9 °F 48.7 °F 58% 30.05 in 10.0 mi NNE 13.8 mph - N/A   Clear
6:15 PM 62.8 °F 48.4 °F 59% 30.06 in 10.0 mi North 16.1 mph 19.6 mph N/A   Clear
6:35 PM 61.3 °F 48.2 °F 62% 30.06 in 10.0 mi NNE 15.0 mph - N/A   Scattered Clouds
6:55 PM 60.3 °F 48.2 °F 64% 30.07 in 10.0 mi North 9.2 mph - N/A   Mostly Cloudy
7:15 PM 59.2 °F 48.0 °F 66% 30.08 in 10.0 mi North 13.8 mph - N/A   Mostly Cloudy
7:35 PM 58.5 °F 48.2 °F 69% 30.08 in 10.0 mi NNE 11.5 mph - N/A   Mostly Cloudy
7:55 PM 57.9 °F 48.4 °F 71% 30.09 in 10.0 mi NNE 10.4 mph 21.9 mph N/A   Mostly Cloudy
8:15 PM 56.3 °F 48.4 °F 75% 30.10 in 10.0 mi NNE 6.9 mph - N/A   Scattered Clouds
8:35 PM 54.9 °F 48.0 °F 78% 30.11 in 10.0 mi North 5.8 mph - N/A   Clear
8:55 PM 53.8 °F 47.5 °F 79% 30.11 in 10.0 mi North 4.6 mph - N/A   Clear
9:15 PM 52.9 °F 47.3 °F 81% 30.12 in 10.0 mi North 6.9 mph - N/A   Clear
9:35 PM 52.9 °F 47.3 °F 81% 30.13 in 10.0 mi North 5.8 mph - N/A   Clear
9:55 PM 52.5 °F 47.3 °F 82% 30.13 in 10.0 mi North 6.9 mph - N/A   Clear
10:15 PM 52.7 °F 47.3 °F 82% 30.14 in 10.0 mi North 8.1 mph - N/A   Clear
10:35 PM 53.2 °F 47.3 °F 80% 30.15 in 10.0 mi North 9.2 mph - N/A   Clear
10:55 PM 52.7 °F 47.3 °F 82% 30.16 in 10.0 mi North 8.1 mph - N/A   Clear
11:15 PM 51.4 °F 46.8 °F 84% 30.16 in 10.0 mi North 6.9 mph - N/A   Clear
11:35 PM 50.9 °F 46.6 °F 85% 30.17 in 10.0 mi North 6.9 mph - N/A   Clear
11:55 PM 50.9 °F 46.4 °F 85% 30.17 in 10.0 mi NNW 6.9 mph - N/A   Clear